FW1289 Weather Reports


time (UTC)temp
C
wind
direction
speed
KPH
gust
KPH
rain 1hr
cm
rain 24hr
cm
rain mn
cm
humidity
%
barometer
mb
20260505163010 10 308 0.0 0.0 0.03 1.42 1.37 88 1007.3
20260505161509 10 348 0.0 1.6 0.05 1.42 1.37 88 1007.1
20260505153011 9 355 0.0 3.2 0.41 1.40 1.35 91 1006.8
20260505151507 9 23 0.0 6.4 0.38 1.37 1.32 90 1006.8
20260505140124 10 291 0.0 12.9 0.13 0.99 0.94 89 1007.5
20260505124547 11 305 0.0 4.8 0.08 0.81 0.76 88 1006.3
20260505123105 12 325 0.0 6.4 0.05 0.79 0.71 86 1006.3
20260505121541 12 319 0.0 0.0 0.03 0.76 0.71 86 1006.2
20260505120046 13 342 0.0 0.0 0.03 0.76 0.71 89 1005.9
20260505114546 13 317 0.0 0.0 0.00 0.71 0.69 91 1006.2
20260505113033 13 292 0.0 0.0 0.00 0.71 0.69 92 1006.0
20260505111532 13 273 0.0 0.0 0.00 0.71 0.69 93 1005.7
20260505101523 13 231 0.0 0.0 0.00 0.71 0.69 92 1004.4
20260505100030 13 231 0.0 0.0 0.00 0.79 0.69 91 1004.6
20260505094522 13 229 0.0 0.0 0.00 0.79 0.69 92 1004.5
20260505093022 13 131 0.0 0.0 0.03 0.79 0.69 92 1003.3
20260505091529 13 136 0.0 0.0 0.10 0.79 0.69 92 1003.7
20260505090036 13 139 0.0 0.0 0.15 0.99 0.69 91 1004.2
20260505084523 14 223 0.0 0.0 0.20 0.99 0.69 90 1003.7
20260505083018 14 214 0.0 0.0 0.25 0.97 0.66 89 1003.7
20260505081524 14 162 0.0 12.9 0.33 0.89 0.58 89 1004.6
20260505080038 14 296 0.0 0.0 0.33 0.86 0.53 89 1005.4
20260505074515 14 279 0.0 0.0 0.38 0.81 0.48 88 1004.9
20260505073016 14 277 0.0 0.0 0.41 0.71 0.41 87 1005.2
20260505071512 15 278 0.0 0.0 0.25 0.58 0.25 83 1005.0
20260505070008 15 248 0.0 0.0 0.20 0.53 0.20 79 1004.9
20260505064502 17 323 0.0 22.5 0.10 0.43 0.10 72 1005.5
20260505063102 20 201 4.8 20.9 0.00 0.33 0.00 64 1004.2
20260505061600 19 199 3.2 27.4 0.00 0.33 0.00 64 1002.7
20260505060052 19 163 8.0 17.7 0.00 0.33 0.00 63 1002.4
20260505054550 20 227 3.2 27.4 0.00 0.33 0.00 62 1002.4
20260505053047 20 235 6.4 19.3 0.00 0.33 0.00 62 1001.9
20260505051544 20 223 1.6 33.8 0.00 0.33 0.00 61 1001.7
20260505050118 20 200 0.0 25.7 0.00 0.33 0.00 61 1001.7
20260505041551 20 182 1.6 22.5 0.00 0.33 0.33 60 1001.4
20260505040051 20 215 1.6 16.1 0.00 0.33 0.33 60 1001.7
20260505034538 20 243 0.0 22.5 0.00 0.33 0.33 60 1001.6
20260505033042 20 219 3.2 27.4 0.00 0.33 0.33 59 1001.7
20260505031544 20 110 4.8 25.7 0.00 0.33 0.33 58 1001.8
20260505030040 20 190 0.0 4.8 0.00 0.33 0.33 58 1001.5
20260505024536 21 192 0.0 11.3 0.00 0.33 0.33 57 1001.6
20260505023042 20 190 0.0 20.9 0.00 0.33 0.33 58 1001.7
20260505021536 20 202 1.6 12.9 0.00 0.33 0.33 58 1001.7
20260505020036 21 217 3.2 29.0 0.05 0.33 0.33 56 1001.7
20260505014538 21 217 1.6 30.6 0.05 0.33 0.33 54 1001.2
20260505013031 21 222 9.7 27.4 0.05 0.33 0.33 55 1000.9
20260505011532 21 202 3.2 25.7 0.05 0.33 0.33 61 1000.7
20260505010028 21 225 0.0 12.9 0.00 0.28 0.28 52 1000.4
20260505004535 21 240 0.0 17.7 0.00 0.28 0.28 51 1000.7
20260505003024 21 211 0.0 4.8 0.00 0.28 0.28 51 1001.0
20260505001524 22 171 0.0 9.7 0.00 0.28 0.28 49 1000.9
20260505000030 22 192 0.0 19.3 0.00 0.28 0.28 50 1000.8
20260504234522 22 205 0.0 11.3 0.00 0.28 0.28 50 1000.9
20260504233021 22 257 0.0 27.4 0.00 0.28 0.28 49 1001.2
20260504231519 23 197 6.4 25.7 0.00 0.28 0.28 47 1001.4
20260504230020 23 219 8.0 17.7 0.00 0.28 0.28 47 1001.4
20260504224519 23 203 3.2 20.9 0.00 0.28 0.28 48 1001.3
20260504223018 23 179 0.0 19.3 0.00 0.28 0.28 46 1001.3
20260504221519 23 180 8.0 29.0 0.00 0.28 0.28 49 1001.5
20260504220016 23 171 8.0 33.8 0.00 0.28 0.28 49 1001.6
20260504214514 23 171 3.2 33.8 0.00 0.28 0.28 52 1002.1
20260504213034 23 227 4.8 22.5 0.00 0.28 0.28 55 1001.9
20260504211515 23 184 0.0 6.4 0.00 0.28 0.28 58 1001.9
20260504210011 22 173 0.0 8.0 0.00 0.28 0.28 60 1001.8
20260504204505 22 189 0.0 11.3 0.00 0.28 0.28 60 1002.2
20260504203008 22 171 6.4 19.3 0.00 0.28 0.28 58 1002.7
20260504201505 22 219 6.4 25.7 0.00 0.28 0.28 59 1003.1
20260504200003 22 201 9.7 30.6 0.00 0.28 0.28 58 1003.5
20260504194503 21 219 14.5 27.4 0.00 0.28 0.28 60 1003.7
20260504193002 20 163 8.0 22.5 0.00 0.28 0.28 62 1002.8
20260504191603 21 215 8.0 27.4 0.00 0.28 0.28 61 1003.5
20260504190117 21 191 1.6 9.7 0.00 0.28 0.28 62 1003.3
20260504184607 21 194 6.4 19.3 0.00 0.28 0.28 60 1003.8
20260504183057 22 213 8.0 24.1 0.00 0.28 0.28 59 1004.0
20260504181555 22 221 6.4 14.5 0.00 0.28 0.28 62 1004.2
20260504180053 22 210 0.0 24.1 0.00 0.28 0.28 62 1004.0
20260504174600 22 206 8.0 20.9 0.00 0.28 0.28 62 1004.5
20260504173054 21 196 1.6 14.5 0.00 0.28 0.28 63 1004.3
20260504171548 21 225 0.0 17.7 0.00 0.28 0.28 63 1004.5